Voltar ao catálogo

STARLINK-35717

AtivoComunicaçõesVLEO
NORAD 66839·PAYLOAD·🇺🇸 United States

Lançado Dec 2, 2025 de Vandenberg Space Force Base

Loading…

Próximas Passagens (próximas 24 horas)

TLE

AtualizadoSource: CelesTrak SupGP

Época: Sep 15, 2026, 03:54 UTC

1 66839C 25280U   26258.16298611 -.00003705  00000+0 -31050-3 0  2582
2 66839  70.0008 216.7116 0003424 268.3189 228.3534 14.98329330    13

Acompanhe STARLINK-35717 em tempo real com AllMySat

Download on the App Store